DW2721 Weather Reports


time (UTC)temp
C
wind
direction
speed
KPH
gust
KPH
rain 1hr
cm
rain 24hr
cm
rain mn
cm
humidity
%
barometer
mb
20260510104528 18 331 0.0 3.2 0.00 6.40 0.03 98 1014.2
20260510104005 18 30 0.0 3.2 0.03 6.40 0.03 98 1014.2
20260510103505 18 281 0.0 1.6 0.03 6.40 0.03 98 1014.1
20260510103019 18 352 0.0 1.6 0.03 6.40 0.03 98 1014.1
20260510102504 18 115 0.0 1.6 0.03 6.40 0.03 98 1014.0
20260510101006 18 115 0.0 0.0 0.03 6.40 0.03 98 1013.9
20260510100509 18 115 0.0 1.6 0.03 6.40 0.03 98 1013.8
20260510100027 18 115 0.0 1.6 0.03 6.40 0.03 98 1013.7
20260510095502 18 340 0.0 4.8 0.03 6.40 0.03 98 1013.7
20260510095004 18 339 0.0 4.8 0.03 6.40 0.03 98 1013.6
20260510094521 18 281 0.0 1.6 0.03 6.40 0.03 98 1013.5
20260510094004 18 240 0.0 1.6 0.00 6.38 0.00 98 1013.5
20260510093507 18 353 0.0 1.6 0.00 6.38 0.00 98 1013.5
20260510093016 18 337 0.0 1.6 0.00 6.38 0.00 98 1013.5
20260510092504 18 12 0.0 3.2 0.00 6.38 0.00 98 1013.5
20260510092007 18 13 0.0 3.2 0.00 6.38 0.00 98 1013.6
20260510091518 18 351 0.0 1.6 0.00 6.38 0.00 98 1013.7
20260510091008 18 147 0.0 1.6 0.00 6.38 0.00 98 1013.7
20260510090508 18 148 0.0 1.6 0.00 6.38 0.00 98 1013.8
20260510090020 18 323 0.0 0.0 0.00 6.38 0.00 98 1013.8
20260510085506 18 323 0.0 1.6 0.00 6.38 0.00 97 1013.7
20260510085008 18 303 0.0 1.6 0.00 6.38 0.00 98 1013.6
20260510084523 18 302 0.0 1.6 0.00 6.38 0.00 98 1013.6
20260510084004 18 302 0.0 1.6 0.00 6.38 0.00 98 1013.7
20260510083503 18 302 0.0 0.0 0.00 6.38 0.00 98 1013.7
20260510083012 18 186 0.0 0.0 0.00 6.38 0.00 98 1013.7
20260510082502 18 186 0.0 1.6 0.00 6.38 0.00 98 1013.7
20260510082007 18 186 0.0 1.6 0.00 6.40 0.00 98 1013.7
20260510081531 18 340 0.0 1.6 0.00 6.40 0.00 98 1013.6
20260510081005 18 338 0.0 0.0 0.00 6.40 0.00 98 1013.6
20260510080506 18 338 0.0 0.0 0.00 6.48 0.00 98 1013.5
20260510080017 18 338 0.0 0.0 0.00 6.63 0.00 98 1013.4
20260510075507 18 338 0.0 0.0 0.00 6.63 0.00 98 1013.4
20260510075009 18 338 0.0 0.0 0.00 6.65 0.00 97 1013.4
20260510074525 18 338 0.0 0.0 0.00 6.68 0.00 97 1013.4
20260510074011 18 338 0.0 0.0 0.00 6.68 0.00 97 1013.4
20260510073509 18 338 0.0 0.0 0.00 6.78 0.00 97 1013.4
20260510073025 18 338 0.0 0.0 0.00 6.83 0.00 97 1013.3
20260510072504 18 338 0.0 1.6 0.00 6.86 0.00 97 1013.2
20260510072004 18 338 0.0 1.6 0.00 6.86 0.00 97 1013.3
20260510071509 18 338 0.0 3.2 0.00 6.88 0.00 97 1013.2
20260510070508 18 289 0.0 1.6 0.00 6.93 0.00 97 1013.1
20260510070021 18 289 0.0 1.6 0.00 6.93 0.00 97 1013.0
20260510065506 18 289 0.0 1.6 0.00 6.93 0.00 97 1013.0
20260510065009 18 289 0.0 1.6 0.00 6.96 0.00 97 1013.1
20260510064522 18 289 0.0 0.0 0.00 6.96 0.00 97 1013.1
20260510064005 18 289 0.0 1.6 0.00 6.96 0.00 97 1013.2
20260510063506 18 289 0.0 1.6 0.00 6.96 0.00 97 1013.3
20260510063025 18 289 0.0 1.6 0.00 6.96 0.00 97 1013.2
20260510062513 18 288 0.0 0.0 0.00 6.99 0.00 97 1013.2
20260510062015 18 288 0.0 0.0 0.00 6.99 0.00 97 1013.4
20260510061529 18 288 0.0 0.0 0.00 6.99 0.00 97 1013.5
20260510061007 18 288 0.0 0.0 0.00 6.99 0.00 97 1013.5
20260510060506 18 288 0.0 0.0 0.00 6.99 0.00 97 1013.7
20260510060012 18 288 0.0 0.0 0.00 6.99 0.00 97 1013.7
20260510055506 18 288 0.0 0.0 0.00 6.99 0.00 97 1013.6
20260510055010 18 288 0.0 0.0 0.00 6.99 0.00 97 1013.6
20260510054520 18 288 0.0 0.0 0.00 6.99 0.00 97 1013.7
20260510054008 18 288 0.0 0.0 0.00 6.99 0.00 97 1013.6
20260510053507 19 288 0.0 0.0 0.00 6.99 0.00 97 1013.5
20260510053021 19 288 0.0 0.0 0.00 6.99 0.00 97 1013.7
20260510052511 18 288 0.0 0.0 0.00 6.99 0.00 97 1013.7
20260510052009 18 288 0.0 0.0 0.00 6.99 0.00 97 1013.7
20260510051532 18 288 0.0 0.0 0.00 6.99 0.00 97 1013.7
20260510051008 18 288 0.0 0.0 0.00 6.99 0.00 97 1013.6
20260510050509 18 288 0.0 1.6 0.00 7.09 0.00 97 1013.5
20260510050027 18 288 0.0 1.6 0.00 7.14 0.00 97 1013.5
20260510045506 18 288 0.0 0.0 0.00 7.21 7.14 97 1013.6
20260510045003 18 288 0.0 0.0 0.00 7.26 7.14 97 1013.7
20260510044514 18 288 0.0 0.0 0.00 7.37 7.14 97 1013.7
20260510043508 19 288 0.0 0.0 0.00 7.47 7.14 97 1013.4
20260510043022 19 288 0.0 0.0 0.00 7.49 7.14 97 1013.6
20260510042510 19 288 0.0 0.0 0.00 7.49 7.14 97 1013.6
20260510042008 19 288 0.0 0.0 0.00 7.52 7.14 97 1013.5
20260510041523 19 332 0.0 0.0 0.00 7.52 7.14 97 1013.3
20260510041010 19 332 0.0 0.0 0.00 7.52 7.14 97 1013.3
20260510040510 19 332 0.0 1.6 0.00 7.52 7.14 97 1013.3
20260510040026 19 332 0.0 1.6 0.00 7.52 7.14 97 1013.3
20260510035508 19 332 0.0 0.0 0.00 7.52 7.14 97 1013.4
20260510035013 19 332 0.0 1.6 0.00 7.52 7.14 97 1013.4
20260510034525 19 332 0.0 1.6 0.00 7.52 7.14 97 1013.5
20260510034007 19 332 0.0 1.6 0.00 7.52 7.14 97 1013.4
20260510033504 19 332 0.0 1.6 0.00 7.52 7.14 97 1013.6
20260510033016 19 334 0.0 1.6 0.00 7.52 7.14 97 1013.5
20260510032511 19 334 0.0 1.6 0.00 7.52 7.14 97 1013.7
20260510032009 19 183 0.0 3.2 0.00 7.52 7.14 97 1013.6
20260510031531 19 183 0.0 3.2 0.00 7.52 7.14 97 1013.7
20260510031007 19 213 0.0 1.6 0.00 7.52 7.14 97 1013.7
20260510030509 19 308 0.0 0.0 0.00 7.52 7.14 97 1013.7
20260510030028 20 308 0.0 3.2 0.00 7.52 7.14 97 1013.9
20260510025509 19 308 0.0 3.2 0.00 7.52 7.14 97 1013.7
20260510025005 19 4 0.0 6.4 0.00 7.52 7.14 97 1013.4
20260510024507 19 170 0.0 6.4 0.00 7.52 7.14 97 1012.9
20260510023503 19 189 1.6 4.8 0.00 7.52 7.14 97 1013.0
20260510023014 19 183 0.0 3.2 0.00 7.52 7.14 97 1013.1
20260510022503 19 184 0.0 3.2 0.00 7.52 7.14 97 1013.1
20260510022008 19 178 0.0 0.0 0.00 7.52 7.14 97 1013.2
20260510021528 19 179 0.0 0.0 0.00 7.52 7.14 97 1013.3
20260510021007 19 179 0.0 0.0 0.00 7.52 7.14 97 1013.2
20260510020507 19 178 0.0 0.0 0.00 7.52 7.14 97 1013.2
20260510020020 19 178 0.0 1.6 0.00 7.52 7.14 97 1013.3
20260510015508 19 178 0.0 1.6 0.00 7.52 7.14 97 1013.4
20260510014523 19 215 0.0 1.6 0.00 7.52 7.14 97 1014.0
20260510014010 19 216 0.0 1.6 0.00 7.52 7.14 97 1014.1
20260510013504 19 216 0.0 1.6 0.00 7.52 7.14 97 1014.2
20260510013008 19 216 0.0 1.6 0.00 7.52 7.14 97 1013.8
20260510012503 19 216 0.0 1.6 0.00 7.52 7.14 97 1013.7
20260510011514 19 213 0.0 1.6 0.00 7.52 7.14 97 1013.5
20260510011009 19 214 0.0 4.8 0.00 7.52 7.14 97 1013.2
20260510010505 19 148 0.0 4.8 0.03 7.52 7.14 97 1013.0
20260510010019 19 148 0.0 4.8 0.10 7.52 7.14 97 1012.7
20260510005008 19 200 0.0 4.8 0.10 7.52 7.14 97 1012.6
20260510004521 19 181 0.0 4.8 0.10 7.52 7.14 97 1012.5
20260510004012 19 221 0.0 6.4 0.10 7.52 7.14 97 1012.3
20260510003028 19 198 1.6 4.8 0.10 7.52 7.14 97 1012.2
20260510002512 19 162 0.0 4.8 0.10 7.52 7.14 97 1012.0
20260510002005 19 217 0.0 4.8 0.13 7.52 7.14 97 1012.1
20260510001510 19 150 0.0 4.8 0.13 7.52 7.14 97 1012.2
20260510001008 19 223 1.6 3.2 0.13 7.52 7.14 97 1012.2
20260510000020 19 94 0.0 6.4 0.05 7.44 7.04 97 1012.3
20260509235008 19 142 0.0 3.2 0.10 7.44 7.04 97 1012.1
20260509233023 19 244 0.0 1.6 0.15 7.44 7.04 97 1012.3
20260509231008 19 161 0.0 1.6 0.15 7.47 7.01 97 1012.4
20260509230508 19 162 0.0 1.6 0.13 7.44 6.99 97 1012.8
20260509230026 19 228 0.0 1.6 0.15 7.44 6.99 97 1012.6
20260509225509 19 228 0.0 1.6 0.13 7.42 6.96 97 1012.4
20260509225009 19 229 0.0 1.6 0.13 7.39 6.93 97 1012.3
20260509224526 19 229 0.0 1.6 0.10 7.37 6.91 97 1012.4
20260509224008 19 229 0.0 0.0 0.10 7.37 6.91 97 1012.7
20260509222508 19 229 0.0 1.6 0.13 7.37 6.88 97 1012.7
20260509222011 19 229 0.0 1.6 0.10 7.34 6.86 97 1012.5
20260509221527 19 229 0.0 1.6 0.10 7.37 6.86 97 1012.3
20260509221009 19 228 0.0 1.6 0.10 7.39 6.86 97 1011.9
20260509220510 19 229 0.0 1.6 0.10 7.42 6.86 97 1011.6
20260509220027 19 203 0.0 0.0 0.08 7.42 6.83 97 1012.0
20260509215511 19 203 0.0 0.0 0.08 7.44 6.83 97 1012.4
20260509215009 19 203 0.0 0.0 0.05 7.44 6.81 97 1012.4
20260509214527 19 203 0.0 1.6 0.05 7.47 6.81 97 1012.5
20260509214010 19 203 0.0 1.6 0.08 7.52 6.81 96 1012.3
20260509213510 19 203 0.0 1.6 0.05 7.52 6.78 96 1012.2
20260509213029 19 207 0.0 3.2 0.08 7.54 6.78 96 1012.1
20260509211521 19 155 0.0 1.6 0.10 7.57 6.76 97 1012.1
20260509211010 19 162 0.0 1.6 0.15 7.57 6.76 97 1012.1
20260509210507 19 181 0.0 1.6 0.18 7.59 6.76 97 1012.2
20260509210029 19 268 0.0 1.6 0.23 7.59 6.76 96 1012.3
20260509205511 19 274 0.0 1.6 0.28 7.59 6.76 96 1012.4
20260509204009 19 186 0.0 3.2 0.43 7.59 6.73 97 1011.4
20260509203506 19 199 0.0 1.6 0.48 7.62 6.73 97 1011.4
20260509202505 18 164 0.0 1.6 0.53 7.59 6.68 97 1011.9
20260509200506 18 175 1.6 8.0 0.81 7.65 6.58 96 1012.1
20260509200024 18 158 0.0 8.0 0.81 7.59 6.53 96 1012.3
20260509195508 18 248 0.0 6.4 0.79 7.57 6.48 96 1012.1
20260509195003 19 187 0.0 6.4 0.79 7.57 6.43 96 1012.7
20260509194509 19 189 0.0 6.4 0.74 7.54 6.35 96 1013.3
20260509193504 19 202 0.0 6.4 0.74 7.72 6.25 97 1013.1
20260509193010 19 167 1.6 6.4 0.74 7.90 6.20 96 1013.2
20260509192508 19 193 0.0 6.4 0.71 8.03 6.15 96 1013.0
20260509192008 19 94 1.6 6.4 0.56 7.90 5.92 96 1013.9
20260509191516 19 238 1.6 4.8 0.46 7.82 5.84 96 1014.3
20260509191007 19 242 0.0 6.4 0.43 7.80 5.79 96 1013.5
20260509190506 19 194 3.2 6.4 0.41 7.80 5.77 96 1013.4
20260509185508 19 276 1.6 4.8 0.33 7.75 5.69 96 1013.6
20260509184533 19 159 0.0 3.2 0.28 7.70 5.61 96 1013.4
20260509184004 19 247 0.0 3.2 0.23 7.65 5.56 96 1013.7
20260509183504 19 264 0.0 3.2 0.20 7.59 5.51 96 1012.9
20260509183009 19 122 0.0 3.2 0.15 7.54 5.46 96 1013.2
20260509182508 19 171 0.0 3.2 0.18 7.52 5.44 96 1013.4
20260509182003 19 168 0.0 4.8 0.15 7.47 5.36 96 1013.5
20260509181008 19 204 1.6 6.4 0.18 7.44 5.33 96 1013.3
20260509180506 19 270 1.6 6.4 0.23 7.44 5.33 96 1013.2
20260509175508 19 188 0.0 6.4 0.30 7.44 5.33 96 1013.1
20260509173508 19 103 1.6 8.0 0.33 7.39 5.28 97 1013.3
20260509173052 19 167 1.6 8.0 0.33 7.39 5.28 97 1013.4
20260509172503 19 172 1.6 6.4 0.30 7.34 5.26 97 1013.1
20260509172006 19 166 3.2 6.4 0.41 7.32 5.23 97 1013.2
20260509171004 18 148 1.6 8.0 0.51 7.26 5.18 97 1013.1
20260509170504 18 228 0.0 4.8 0.48 7.21 5.13 97 1013.2
20260509165507 18 186 1.6 6.4 0.43 7.14 5.05 97 1013.7
20260509165008 18 243 0.0 4.8 0.46 7.11 5.03 97 1013.6
20260509164007 18 162 0.0 8.0 0.51 7.09 5.00 97 1013.3
20260509163511 18 184 3.2 8.0 0.56 7.06 4.98 97 1013.5
20260509162010 18 188 0.0 4.8 0.97 6.91 4.83 97 1013.6
20260509161527 18 231 1.6 6.4 0.86 6.78 4.70 97 1013.9
20260509161005 18 189 1.6 6.4 0.94 6.76 4.67 97 1013.5
20260509160504 18 231 1.6 8.0 0.99 6.73 4.65 97 1013.3
20260509160020 18 94 1.6 8.0 1.02 6.73 4.65 97 1013.2
20260509155504 18 167 1.6 8.0 1.02 6.71 4.62 97 1013.3
20260509155008 18 338 1.6 9.7 0.99 6.65 4.57 97 1013.4
20260509154518 18 144 1.6 9.7 0.99 6.60 4.52 97 1013.9
20260509154007 18 212 3.2 8.0 0.99 6.58 4.50 97 1013.9
20260509153508 18 250 0.0 6.4 1.04 6.50 4.42 97 1013.8
20260509153031 18 182 1.6 6.4 0.99 6.40 4.32 97 1013.7
20260509152507 18 211 0.0 3.2 0.74 6.12 4.04 97 1014.2
20260509152007 18 262 0.0 3.2 0.58 5.92 3.86 97 1014.3
20260509151011 18 139 0.0 4.8 0.48 5.82 3.73 97 1013.8
20260509150509 18 205 0.0 6.4 0.46 5.74 3.66 97 1013.9
20260509150028 18 135 0.0 6.4 0.46 5.71 3.63 97 1013.4
20260509145504 18 193 0.0 6.4 0.46 5.69 3.61 97 1013.8
20260509145004 18 221 1.6 4.8 0.53 5.66 3.58 97 1013.9
20260509144514 18 246 0.0 6.4 0.66 5.61 3.53 97 1013.3
20260509144004 18 329 0.0 6.4 0.64 5.59 3.51 97 1013.3
20260509143506 18 295 0.0 4.8 0.51 5.46 3.38 97 1013.2
20260509143021 18 188 0.0 4.8 0.48 5.41 3.33 97 1013.1
20260509142506 18 285 0.0 1.6 0.46 5.36 3.30 97 1013.0
20260509142007 18 258 0.0 1.6 0.43 5.33 3.28 97 1012.6
20260509141011 18 129 0.0 1.6 0.46 5.31 3.25 97 1013.1
20260509140025 18 233 0.0 1.6 0.38 5.26 3.17 97 1013.7
20260509135507 18 240 0.0 3.2 0.38 5.23 3.15 97 1013.5
20260509135009 18 136 0.0 3.2 0.30 5.13 3.05 97 1013.5
20260509134526 18 69 1.6 3.2 0.18 4.95 2.87 97 1013.8
20260509134008 18 204 0.0 3.2 0.20 4.95 2.87 97 1014.0
20260509133506 18 243 1.6 3.2 0.30 4.95 2.87 97 1013.5
20260509133015 18 262 0.0 1.6 0.33 4.93 2.84 97 1012.9
20260509132508 18 262 0.0 3.2 0.58 4.93 2.84 96 1012.8
20260509132006 18 18 0.0 3.2 1.17 4.93 2.84 96 1012.7
20260509131520 18 150 0.0 1.6 1.85 4.90 2.82 96 1013.0
20260509131007 18 200 0.0 1.6 1.96 4.88 2.79 96 1013.1
20260509130506 18 210 0.0 1.6 2.03 4.88 2.79 96 1013.4
20260509130050 18 210 0.0 0.0 2.03 4.88 2.79 96 1013.2
20260509125510 18 209 0.0 1.6 2.01 4.85 2.77 96 1013.2
20260509125008 18 132 0.0 1.6 1.98 4.83 2.74 96 1013.0
20260509124532 18 132 0.0 1.6 1.93 4.78 2.67 96 1013.2
20260509124008 18 227 0.0 12.9 1.91 4.75 2.64 96 1013.3
20260509123509 18 269 0.0 14.5 1.80 4.65 2.57 96 1013.1
20260509123037 18 340 3.2 17.7 1.75 4.60 2.51 95 1012.9
20260509122505 18 80 3.2 17.7 1.47 4.34 2.26 94 1013.0
20260509122006 18 87 4.8 17.7 0.91 3.76 1.68 93 1013.2
20260509121518 19 165 3.2 14.5 0.20 3.05 0.97 93 1013.8
20260509121005 20 245 1.6 29.0 0.08 2.92 0.84 91 1013.6
20260509120507 21 131 8.0 29.0 0.00 2.84 0.76 90 1013.1
20260509120029 21 307 0.0 3.2 0.00 2.84 0.76 95 1011.8
20260509115505 21 143 0.0 3.2 0.00 2.84 0.76 95 1011.2
20260509115007 21 252 0.0 1.6 0.00 2.84 0.76 95 1010.9
20260509114507 21 257 0.0 8.0 0.00 2.84 0.76 95 1010.7
20260509114004 21 203 1.6 8.0 0.00 2.84 0.76 95 1010.4
20260509113508 21 203 1.6 8.0 0.00 2.84 0.76 95 1010.4
20260509113013 21 139 1.6 8.0 0.00 2.84 0.76 95 1010.6
20260509112504 21 212 0.0 4.8 0.00 2.84 0.76 95 1010.6
20260509112007 21 221 1.6 4.8 0.00 2.84 0.76 95 1010.3
20260509111515 21 213 1.6 4.8 0.00 2.84 0.76 96 1010.3
20260509111006 20 146 1.6 4.8 0.00 2.84 0.76 96 1010.2
20260509110506 20 164 0.0 3.2 0.00 2.84 0.76 96 1010.2
20260509110021 20 155 0.0 3.2 0.00 2.84 0.76 96 1010.2
20260509105506 20 184 0.0 6.4 0.00 2.84 0.76 96 1010.3